Wind_Speed
16 16 16 16 15 15 14 14 14 14 14 14 14 14 14 14 14 15 15 15 15 16 17 17 16 16 16 16 17 18 18 18 18 17 17 17 16 15 14 14 14 14 15
18 17 17 17 16 15 15 14 14 13 13 13 13 13 13 14 15 15 16 16 16 16 17 17 17 17 18 18 19 20 20 20 20 20 20 20 19 18 17 16 15 15 14
18 18 18 18 17 16 15 14 13 13 13 13 12 12 13 14 15 16 17 16 16 16 17 17 17 18 18 19 20 21 22 22 22 22 22 22 22 21 20 18 17 16 15
19 19 19 18 18 16 15 14 13 13 13 13 12 12 12 13 15 16 17 18 17 17 17 17 17 18 19 20 21 22 23 24 23 23 23 24 24 23 22 21 21 20 19
20 19 19 19 19 17 16 15 14 13 13 13 13 13 13 14 15 16 18 19 19 19 19 19 20 20 20 21 22 23 24 25 25 25 25 24 25 25 25 25 25 25 24
21 20 20 20 19 18 16 15 14 13 13 13 13 14 14 15 16 17 18 20 21 21 22 22 23 23 23 24 24 25 25 25 25 25 25 25 25 26 28 28 29 29 29
21 20 20 20 20 19 17 15 14 14 14 14 14 14 15 16 17 17 18 20 21 22 23 24 25 26 26 26 27 26 26 26 26 26 26 27 27 28 30 32 33 33 33
21 20 20 21 20 20 18 16 15 15 15 15 15 15 16 17 18 19 20 20 21 21 23 24 25 25 26 26 27 27 27 28 28 29 29 30 31 32 33 35 36 36 37
20 20 21 22 21 20 19 17 16 15 15 16 16 17 17 19 19 20 21 22 22 23 23 24 24 25 26 27 28 28 29 30 31 32 33 34 35 36 37 38 38 39 40
20 21 21 22 22 21 20 19 17 16 15 16 16 17 18 19 20 21 21 23 23 25 25 26 26 27 28 28 29 30 31 32 33 35 36 37 38 39 39 40 40 41 41
21 21 22 22 22 23 22 20 18 17 16 16 17 18 19 19 20 21 22 23 24 25 26 26 27 28 29 30 31 32 33 34 36 37 38 39 40 40 41 41 40 40 40
22 22 23 23 23 23 23 21 20 18 17 17 17 18 19 20 21 21 22 23 23 24 25 25 26 28 29 30 31 32 34 35 36 38 39 40 40 41 40 40 39 38 37
24 23 23 24 24 24 24 22 21 20 19 18 18 19 20 21 22 23 24 24 25 25 26 26 27 28 29 30 32 33 35 36 37 38 39 40 40 40 39 39 38 37 37
25 24 24 24 25 25 25 23 22 21 21 20 20 21 22 23 24 25 27 27 27 28 28 28 29 30 31 32 34 35 37 38 38 39 39 40 40 39 39 39 39 39 39
26 25 24 25 25 26 26 25 23 23 23 22 22 23 25 26 27 28 29 30 30 30 31 32 33 34 35 36 37 38 38 39 40 40 40 40 40 40 40 40 41 41 42
26 26 26 25 25 25 26 26 25 25 24 24 24 25 26 28 29 30 31 31 31 32 32 33 34 36 37 38 39 40 40 41 41 41 41 41 41 41 42 42 43 43 44
26 26 26 26 26 25 25 26 26 26 25 25 25 27 28 29 30 31 31 31 32 32 33 33 35 36 38 39 40 40 41 41 42 42 42 42 43 43 44 45 46 47 48
27 26 25 25 25 25 25 26 26 26 26 26 26 27 29 30 30 31 31 31 32 32 33 35 36 38 39 39 40 41 42 42 42 43 44 45 46 46 48 49 50 52 53
27 26 26 25 25 25 25 25 25 26 26 26 27 28 30 31 31 31 31 32 33 34 35 37 39 40 40 41 41 42 43 43 44 45 46 47 49 50 52 54 56 58 59
28 27 26 25 24 24 24 25 25 25 26 27 28 30 31 31 32 33 33 34 35 37 39 40 42 42 43 43 43 43 44 45 45 47 49 50 52 54 57 59 61 63 65
28 27 26 25 24 25 25 25 25 26 27 28 30 31 32 33 34 34 35 37 38 40 42 43 44 45 45 45 45 44 45 47 48 50 52 55 58 60 63 65 67 69 71
28 27 26 25 25 25 25 26 26 27 28 30 31 33 34 34 35 36 38 40 41 43 44 44 45 46 47 47 47 47 47 48 51 54 57 60 63 66 68 70 72 74 75
28 27 27 26 26 26 26 26 27 28 30 32 33 34 35 37 38 40 41 42 43 44 45 45 46 47 48 50 51 53 54 55 55 57 60 64 67 69 71 73 74 76 77
28 27 27 26 26 26 27 27 29 30 32 33 35 36 38 39 40 41 42 43 44 45 46 46 47 49 50 52 55 58 61 64 66 66 65 66 68 69 71 73 75 77 80
27 26 26 26 26 26 27 28 30 32 33 35 37 38 39 40 41 42 43 44 45 46 47 48 50 52 54 56 59 62 65 69 72 75 74 72 71 71 72 75 78 81 85
27 26 25 25 25 26 27 29 31 32 34 36 37 39 40 41 42 43 44 45 46 47 48 50 53 55 58 61 64 67 69 70 72 74 76 77 77 76 77 80 84 89 93
Wind_Direction
269 274 277 280 284 289 291 293 294 294 293 293 291 288 282 277 273 269 266 263 260 259 258 257 256 257 257 258 261 264 267 269 270 270 269 268 270 273 277 284 291 296 297
265 271 275 279 282 286 287 288 289 290 289 288 287 284 279 273 268 264 262 261 260 261 260 258 256 255 255 258 261 264 266 267 269 271 270 269 269 270 273 278 284 290 294
263 268 273 277 279 282 282 284 286 286 284 282 282 280 276 270 263 258 257 258 259 260 259 257 254 254 256 259 262 265 267 268 270 271 271 270 269 270 271 274 279 283 286
261 265 270 273 274 277 277 279 282 282 281 279 279 277 273 268 262 257 255 256 257 258 258 256 255 255 258 261 265 267 268 268 268 269 270 270 269 270 271 273 276 278 280
260 264 267 269 269 270 271 274 278 280 280 278 277 275 272 269 264 260 257 256 256 257 257 258 258 259 262 265 267 269 269 268 267 267 268 269 271 273 273 274 275 276 277
260 263 265 264 264 263 264 268 272 276 277 276 275 273 271 270 269 265 261 259 258 258 259 260 262 264 266 268 270 270 270 269 268 268 269 270 272 275 276 277 278 278 277
261 264 264 261 259 256 257 261 265 270 273 275 274 272 270 269 269 269 268 265 264 263 264 265 267 268 270 271 271 271 271 271 270 270 271 272 273 274 275 277 277 277 276
262 264 263 259 255 252 251 255 259 264 269 272 274 273 272 271 270 271 271 272 271 271 270 270 270 271 272 272 273 272 272 273 274 273 273 274 275 275 276 277 277 277 276
261 263 262 257 253 248 247 251 256 262 268 272 274 276 276 275 275 275 275 275 275 275 274 274 273 273 273 273 273 273 274 275 275 276 276 277 277 278 278 278 278 277 276
260 261 260 256 252 246 245 248 252 258 266 272 276 278 279 281 281 280 280 279 278 277 276 275 274 274 274 274 274 275 276 276 277 278 279 279 280 281 281 280 279 278 277
260 262 262 257 251 246 244 246 250 255 264 271 277 281 284 286 286 286 285 284 282 280 278 277 276 276 276 276 276 277 278 279 280 280 281 282 282 283 283 282 280 278 277
261 263 263 259 252 246 243 243 247 253 261 269 276 283 287 290 291 291 291 289 288 287 285 284 282 281 280 280 280 280 281 282 282 282 282 282 283 284 284 283 282 280 279
260 261 261 258 253 249 246 244 247 251 260 268 275 282 287 291 294 295 295 295 294 292 290 289 287 285 284 283 283 284 284 285 285 285 284 284 284 284 284 284 283 281 279
258 258 257 254 252 250 249 249 250 252 259 267 274 281 287 291 294 296 295 294 293 291 290 289 288 288 289 288 288 288 288 288 287 286 286 285 284 283 282 281 280 279 278
258 258 256 252 249 247 248 250 252 256 261 268 275 282 288 291 294 295 294 294 293 291 290 289 289 290 291 291 290 290 289 288 286 285 284 282 281 280 279 279 278 278 278
256 257 255 253 250 246 246 248 252 257 263 270 277 284 288 291 293 294 294 293 293 292 290 289 289 290 291 291 291 290 289 288 287 285 284 283 282 281 280 279 278 277 277
253 253 253 252 251 248 247 248 251 256 262 268 276 283 287 289 292 293 294 293 293 292 292 291 291 291 291 291 290 289 288 287 286 285 284 284 283 282 281 280 279 278 277
252 251 250 250 251 250 250 251 254 258 262 269 277 283 287 290 292 293 294 294 293 294 294 294 293 293 292 291 290 289 288 287 286 285 284 284 283 282 282 281 281 280 279
251 250 248 249 250 251 253 255 258 262 266 272 278 284 288 291 292 294 295 294 294 294 294 295 295 294 292 291 290 289 287 286 286 285 285 284 284 284 283 283 283 282 281
250 250 248 248 250 252 254 258 262 265 270 276 282 287 290 292 292 293 294 294 295 295 295 295 295 294 292 291 290 289 287 287 287 286 287 287 287 287 287 287 287 286 285
249 251 249 248 249 252 256 260 264 269 274 279 284 288 291 292 292 293 293 294 295 295 295 295 295 295 294 293 291 291 291 291 292 292 292 293 293 292 292 292 291 290 289
247 249 250 250 251 254 258 262 266 271 276 282 286 289 291 292 293 293 294 295 296 296 296 296 295 295 295 294 293 292 291 292 294 295 295 295 295 295 294 293 292 291 290
244 247 249 251 253 256 259 262 267 273 278 283 287 290 291 292 294 294 295 296 296 297 297 297 297 297 297 297 297 296 295 294 292 293 294 295 295 294 294 293 292 291 290
241 244 247 250 252 255 259 263 269 274 279 283 286 289 291 293 294 295 295 296 297 298 298 298 298 298 298 299 299 299 299 299 297 296 295 295 295 295 294 294 293 293 291
237 242 245 248 251 255 260 265 270 275 279 283 286 289 291 293 294 295 296 297 298 298 299 299 299 300 300 300 300 300 300 300 300 300 299 298 297 297 297 296 296 295 294
236 241 245 248 252 257 262 266 271 276 280 283 286 289 291 293 295 296 296 297 298 299 299 300 300 301 301 301 301 301 301 301 301 300 300 299 298 298 299 299 299 299 297
Height
5856 5856 5856 5856 5856 5855 5855 5855 5854 5854 5854 5853 5853 5852 5852 5853 5853 5853 5853 5853 5852 5852 5852 5852 5852 5852 5851 5851 5851 5850 5850 5849 5848 5848 5847 5845 5844 5843 5841 5840 5838 5837 5835
5853 5854 5854 5854 5853 5853 5853 5852 5852 5852 5851 5851 5850 5850 5850 5850 5850 5850 5849 5849 5849 5849 5849 5848 5848 5848 5847 5847 5846 5846 5846 5845 5845 5844 5843 5842 5841 5840 5838 5837 5835 5834 5832
5850 5851 5851 5851 5851 5850 5850 5850 5849 5849 5849 5848 5848 5848 5847 5847 5847 5846 5846 5846 5846 5846 5845 5845 5844 5844 5843 5843 5842 5842 5842 5841 5841 5840 5839 5838 5837 5836 5835 5834 5832 5831 5830
5847 5847 5848 5848 5848 5848 5847 5847 5847 5847 5846 5846 5845 5845 5845 5844 5844 5844 5843 5843 5843 5842 5842 5841 5841 5840 5840 5839 5838 5838 5837 5837 5836 5836 5835 5834 5833 5832 5831 5830 5829 5828 5826
5843 5844 5844 5845 5845 5845 5844 5844 5844 5844 5844 5844 5843 5842 5842 5841 5841 5841 5840 5840 5839 5839 5838 5838 5837 5837 5836 5836 5835 5834 5833 5832 5832 5831 5830 5829 5828 5827 5827 5826 5825 5824 5822
5839 5840 5841 5841 5841 5841 5842 5842 5842 5842 5842 5841 5841 5840 5839 5839 5838 5838 5837 5837 5836 5835 5835 5835 5834 5833 5833 5832 5831 5830 5829 5828 5827 5826 5826 5825 5824 5823 5821 5821 5820 5819 5817
5836 5837 5837 5838 5838 5838 5839 5839 5839 5839 5839 5839 5838 5837 5837 5836 5836 5835 5834 5834 5833 5832 5832 5831 5831 5830 5829 5828 5827 5826 5824 5823 5823 5822 5821 5820 5819 5818 5816 5815 5814 5812 5811
5832 5833 5833 5834 5834 5835 5836 5836 5837 5837 5836 5836 5836 5835 5834 5834 5833 5832 5832 5831 5830 5829 5828 5827 5827 5826 5824 5823 5822 5821 5820 5819 5817 5816 5815 5814 5813 5811 5810 5808 5806 5805 5804
5828 5829 5829 5830 5831 5831 5832 5833 5834 5834 5834 5833 5833 5832 5831 5831 5830 5829 5829 5828 5827 5825 5824 5823 5822 5821 5820 5818 5817 5816 5814 5813 5811 5810 5808 5807 5806 5804 5802 5800 5798 5797 5795
5824 5825 5825 5826 5827 5828 5829 5830 5830 5831 5830 5830 5829 5829 5828 5828 5827 5826 5825 5824 5822 5821 5820 5819 5817 5816 5814 5813 5811 5810 5808 5806 5805 5803 5801 5800 5798 5796 5794 5792 5790 5788 5786
5820 5821 5821 5822 5823 5824 5825 5826 5827 5827 5827 5827 5826 5826 5825 5824 5823 5822 5821 5819 5818 5816 5815 5813 5811 5810 5808 5807 5805 5803 5802 5800 5797 5795 5793 5791 5789 5787 5785 5783 5781 5779 5777
5816 5816 5817 5818 5819 5820 5821 5822 5823 5824 5824 5824 5823 5822 5821 5820 5819 5818 5816 5814 5813 5811 5809 5807 5806 5804 5802 5801 5799 5797 5794 5792 5790 5787 5785 5783 5781 5778 5776 5774 5772 5770 5768
5812 5812 5813 5813 5814 5815 5816 5818 5819 5820 5821 5820 5819 5819 5818 5816 5815 5813 5811 5809 5808 5806 5804 5802 5800 5798 5796 5794 5792 5790 5787 5784 5782 5779 5776 5774 5771 5769 5767 5765 5763 5761 5759
5807 5808 5809 5809 5810 5811 5812 5814 5815 5816 5817 5816 5815 5815 5813 5812 5810 5809 5807 5805 5803 5801 5799 5797 5795 5793 5790 5788 5785 5782 5779 5777 5774 5771 5768 5765 5763 5760 5758 5756 5754 5752 5750
5801 5803 5804 5805 5806 5807 5808 5809 5811 5812 5812 5812 5811 5810 5808 5807 5806 5804 5802 5800 5798 5796 5793 5791 5789 5786 5784 5781 5778 5775 5772 5769 5765 5763 5760 5757 5754 5752 5750 5747 5745 5743 5741
5796 5797 5798 5800 5801 5803 5804 5805 5807 5807 5807 5807 5806 5805 5803 5802 5800 5798 5796 5794 5792 5790 5787 5785 5783 5780 5777 5774 5771 5767 5764 5760 5757 5754 5751 5748 5746 5743 5741 5738 5736 5734 5731
5791 5792 5793 5794 5796 5798 5800 5801 5802 5803 5803 5802 5801 5800 5798 5796 5794 5792 5790 5788 5785 5783 5781 5778 5775 5773 5770 5766 5763 5759 5756 5752 5749 5746 5742 5739 5737 5734 5731 5728 5726 5723 5721
5785 5787 5788 5789 5791 5792 5794 5796 5797 5797 5797 5797 5796 5794 5792 5790 5788 5786 5783 5781 5779 5776 5773 5771 5768 5764 5761 5758 5754 5751 5747 5743 5740 5736 5733 5730 5727 5724 5720 5717 5714 5711 5708
5779 5781 5783 5784 5785 5787 5789 5790 5790 5791 5791 5790 5789 5788 5786 5784 5781 5779 5777 5774 5772 5769 5766 5763 5759 5756 5753 5749 5745 5742 5738 5734 5730 5726 5723 5719 5715 5712 5709 5705 5701 5697 5694
5773 5775 5777 5779 5780 5782 5783 5784 5784 5784 5784 5784 5783 5781 5779 5777 5775 5772 5770 5767 5764 5761 5758 5754 5750 5746 5743 5740 5736 5732 5728 5724 5720 5716 5712 5708 5703 5699 5695 5691 5686 5682 5677
5767 5769 5771 5773 5775 5776 5777 5778 5778 5778 5778 5777 5776 5774 5772 5770 5767 5765 5762 5759 5756 5752 5748 5744 5740 5736 5732 5729 5726 5722 5718 5713 5709 5704 5699 5695 5690 5685 5679 5674 5669 5664 5659
5761 5763 5765 5767 5769 5770 5771 5772 5772 5772 5772 5771 5769 5767 5765 5762 5760 5757 5753 5750 5746 5742 5738 5734 5730 5726 5721 5717 5714 5711 5709 5706 5699 5693 5687 5681 5676 5670 5664 5657 5651 5645 5639
5755 5757 5759 5761 5762 5764 5765 5765 5766 5765 5765 5764 5762 5760 5757 5754 5751 5748 5744 5740 5736 5732 5728 5724 5719 5715 5710 5705 5700 5696 5692 5690 5689 5686 5678 5670 5662 5655 5648 5641 5633 5625 5618
5750 5752 5753 5755 5756 5758 5759 5759 5759 5759 5758 5756 5754 5752 5749 5746 5743 5739 5735 5731 5726 5722 5717 5713 5709 5704 5699 5694 5688 5682 5675 5669 5665 5664 5664 5656 5648 5640 5631 5623 5614 5605 5596
5744 5746 5747 5749 5750 5751 5752 5753 5752 5751 5750 5749 5746 5744 5741 5737 5734 5730 5725 5721 5717 5712 5707 5702 5697 5692 5687 5681 5676 5669 5662 5654 5645 5638 5636 5634 5628 5620 5611 5603 5593 5582 5572
5738 5740 5742 5743 5744 5745 5746 5746 5745 5744 5743 5741 5739 5736 5732 5729 5725 5720 5716 5711 5707 5702 5697 5692 5686 5681 5674 5668 5661 5654 5647 5639 5631 5622 5615 5610 5604 5599 5590 5580 5569 5556 5544